Tracking 19575 objects as of 18-Feb-2019
HD Live streaming from Space Station
objects crossing your sky now

COSMOS 1809

Track COSMOS 1809 now!
10-day predictions
COSMOS 1809 is classified as:


NORAD ID: 17241
Int'l Code: 1986-101A
Perigee: 944.3 km
Apogee: 968.5 km
Inclination: 82.5 °
Period: 104.0 minutes
Semi major axis: 7327 km
RCS: 8.1003 m2 (large)
Launch date: December 18, 1986
Source: Commonwealth of Independent States (former USSR) (CIS)
Launch site: PLESETSK MISSILE AND SPACE COMPLEX (PKMTR)
aabbcc
Your satellite tracking list
Your tracking list is empty




NASA's NSSDC Master Catalog

Two Line Element Set (TLE):
1 17241U 86101A   19049.15580789  .00000137  00000-0  10916-3 0  9998
2 17241  82.5271 251.3104 0016518 109.0549  30.3544 13.84126898624862
Source of the keplerian elements: AFSPC